Погода Наро-Фоминск

Погода Наро-Фоминск : погода сейчас, прогноз погоды и архив. Всё, что Вы хотите узнать о погоде Наро-Фоминск!

Хотите узнать прогноз погоды Наро-Фоминск? Тогда Вам сюда: Погода Наро-Фоминск

Поиск расширенной информации на нашем сайте:

Другие новости

Новости СМИ2

Главная страница сайта

Новости сайта

02.10.2013

Напоминаем, что на нашем новом сайте вы можете получить высокодетализированные прогнозы погоды по пунктам России, СНГ и мира (включающие важные для авиации метеовеличины, такие как направление и скорость ветра, видимость, явления погоды, количество и форма облачности, нижняя и верхняя граница облачности), а также ознакомиться с разнообразными материалами по авиационной метеорологии и подборкой полезных ссылок на эту тему.

Сайт Метеоцентр.Азия посвящён разработке технологий оптимизации авиаметеорологического обслуживания, включая проектирование и перспективное создание нескольких автоматизированных авиаметеорологических систем:
- система выпуска высокодетальных прогностических карт явлений погоды для нижнего воздушного пространства по России и ближнему зарубежью;
- система верификации прогнозов TAF (выпускаемых синоптиками официальных АМСГ РФ и ближнего зарубежья) и AUTOTAF (выпускаемых сайтом Метеоцентр.Азия) - выявление ошибок, онлайн-сопоставление с фактической погодой METAR, автоматическое внесение коррективов в прогнозы при резком отклонении фактической погоды от прогноза, подсчёт оправдываемости прогнозов по элементам и в целом;
- система обработки, анализа и отображения авиаметеорологической информации для применения провайдерами метеорологической информации.

Рекомендуем: http://cnctrainer.ru/ самообучение что такое самообучение.

Погода Наро-Фоминск - сегодня

Время (UTC), дата Ветер
(°,м/с) 
Видим.   Явления Облачность Т
(°С)
Тd
(°С)
f(%) Тe
(°С)
Pmin
(гПа)
dP
(гПа)
Po
(мм)
O2
(г/м3)
Тmin Tmax R s Состояние
почвы
09 18.01.17 280 (З) 10 км    10/10 600 м 
[Sc]
-5.4 -7.4 86 -8  1036.5  0.4  759  313           
12 18.01.17 230 (ЮЗ) 10 км    9/6 600 м средняя 
[Sc|Ac trans]
-4.5 -6.7 85 -6  1035.2  -1.2  758  311           
15 18.01.17 260 (З) 10 км    9/8 600 м средняя 
[Sc|Ac trans]
-5.3 -7.5 84 -8  1034.9  -0.4  757  312           
18 18.01.17 250 (З) 10 км    9/9 600 м 
[Sc]
-6.8 -8.8 86 -9  1034.3  -0.7  757  314    -4.5       
21 18.01.17 250 (З) 10 км    9/9 600 м 
[Sc]
-6.3 -9.1 80 -9  1032.7  -1.5  756  313           
00 19.01.17 250 (З) 10 км    9/9 600 м 
[Sc]
-6.4 -8.6 84 -10  1031.8  -0.8  755  312           
03 19.01.17 240 (ЮЗ) 10 км    9/9 600 м 
[Sc]
-6.4 -8.5 85 -10  1030.6  -1.2  754  312  -7.2         
06 19.01.17 220 (ЮЗ) 10 км    9/9 1000 м 
[Sc]
-6 -8.7 81 -9  1028.5  -2  753  311  -7.2      34  равномерный
сухой снег
100% 
09 19.01.17 220 (ЮЗ) 10 км  в посл. час ливневой снег  10/10 600 м кучево-дожд. 
[Cb cap]
-4.8 -7.8 79 -8  1026.7  -1.6  752  309           
12 19.01.17 230 (ЮЗ) 10 км  в посл. час ливневой снег  10/10 600 м кучево-дожд. 
[Cb cap]
-3.8 -6.3 83 -7  1023.9  -2.7  749  307           
15 19.01.17 240 (ЮЗ) 5{10}  10 км  слаб. ливневой снег  10/10 600 м кучево-дожд. 
[Cb cap]
-4.2 -6.5 84 -8  1022.1  -1.7  748  307      0.2     
18 19.01.17 250 (З) 5{10}  10 км  {ливн. осадки}  10/10 600 м кучево-дожд. 
[Cb cap]
-4.6 -6.8 85 -8  1020.5  -1.6  747  307    -3.8  0.2     
21 19.01.17 230 (ЮЗ) 10 км  {ливн. осадки}  10/10 600 м кучево-дожд. 
[Cb cap]
-5.1 -7.2 85 -8  1017.9  -2.6  745  307           
00 20.01.17 250 (З) 4-10{10}  10 км  позёмок{ливн. осадки}  10/10 600 м 
[Sc]
-4.4 -5.4 93 -8  1015.2  -2.5  743  305           
03 20.01.17 260 (З) 4{11}  10 км    10/10 600 м 
[Sc]
-3.5 -4.5 93 -6  1014.2  -0.9  743  304  -5.1    0.0     
06 20.01.17 250 (З) 10 км    10/10 600 м кучево-дожд. 
[Cb cap]
-2.7 -4.2 89 -6  1014.5  0.3  743  303  -5.1    0.0  33  равномерный
сухой снег
100% 
09 20.01.17 280 (З) 10 км    9/9 600 м 
[Sc]
-0.6 -3.7 80 -3  1014.5  0.2  743  300           
12 20.01.17 320 (СЗ) 5{11}  10 км  позёмок  9/9 600 м 
[Sc]
-0.7 -7.4 60 -4  1015.3  0.8  743  301           
15 20.01.17 290 (З) 10 км    1/0 верхняя 
[Ci sp]
-3.4 -8.8 66 -5  1016.5  0.9  744  304           
18 20.01.17 280 (З) 10 км    9/0 верхняя 
[Ci sp]
-4.7 -8.4 75 -7  1016.4  -0.2  744  306    +0.2       
21 20.01.17 240 (ЮЗ) 10 км    9/8 600 м верхняя 
[Sc|Ci sp]
-5 -8 79 -7  1015.1  -1.3  743  306           
00 21.01.17 250 (З) 4000 м  слаб. ливневой снег  10/10 600 м кучево-дожд. 
[Cb cap]
-4.5 -6.3 87 -7  1013.1  -1.8  742  304           
03 21.01.17 230 (ЮЗ) 10 км  {ливн. осадки}  10/10 600 м кучево-дожд. 
[Cb cap]
-3.7 -4.6 93 -5  1010.7  -2.2  740  303  -6.2    0.0     
06 21.01.17 290 (З) 10 км  {ливн. осадки}  10/10 600 м 
[Sc]
-2.3 -3.3 93 -4  1010.4  -0.2  740  301  -6.2    0.2  33  равномерный
сухой снег
100% 
09 21.01.17 320 (СЗ) 10 км  {ливн. осадки}  8/8 600 м 
[Sc diur, vesp]
-1.9 -6 74 -5  1011.2  0.8  740  301           
Время (UTC), дата Ветер
(°,м/с) 
Видим.   Явления Облачность Т
(°С)
Тd
(°С)
f(%) Тe
(°С)
Pmin
(гПа)
dP
(гПа)
Po
(мм)
O2
(г/м3)
Тmin Tmax R s Состояние
почвы

Для получения пояснительной информации подведите курсор к названию столбца.

ПОГОДА Наро-Фоминск - архив

Всё, что Вы хотите узнать о погоде Наро-Фоминск - удобно и подробно!

Выберите нужную дату (начиная с 1 января 2015* года) и нажмите кнопку "Найти".
Будут отображены архивные сводки погоды по пункту Наро-Фоминск, начиная с указанной даты.


Отображать данные в формате CSV (для использования в таблицах Excel)


Внимание! Наш архив погоды предназначен исключительно для личного некоммерческого использования в познавательных целях. Если Вам необходимы официальные справки о состоянии погоды (для производственных, юридических, коммерческих и т.п. целей), обращайтесь в органы Росгидромета.

*Примечание: данная дата относится к архиву по метеостанциям СССР (Россия, СНГ, Балтия).
Архив по метеостанциям Зарубежной Европы и Азии (кроме Китая) хранится 10 дней, по другим регионам земного шара (Китай, Африка, Америка, Австралия, Океания) - 1 день.

Наро-Фоминск - район местоположения метеостанции


Название, широта, долгота, высота метеостанции:
Наро-Фоминск 55.4°ш. 36.7°д. 193 м над ур. моря [Российская Федерация]

Дополнительная информация

В oтличие oт бoльшинства пoгoдных сайтoв мы публикуем пoдрoбную метеoинфoрмацию в детальнoм прoфессиoнальнoм фoрмате.

Характеристики температуры и влажнoсти вoздуха измеряются на высoте 2 м в тени вдали oт зданий и деревьев.
Скoрoсть ветра измеряется на высoте 10 м (на урoвне рoста челoвека скoрoсть ветра ниже в 1.5-2 раза). Если метеoстанция нахoдится в гoрoде или в лесу, тo скoрoсть ветра занижена на 2-4 м/с пo сравнению с oткрытым местoм. Скoрoсть ветра над акватoриями крупных рек и oзёр, а также на вершинах хoлмoв на 2-5 м/с выше, чем в oбычных услoвиях.
Атмoсфернoе давление в разных тoчках местнoсти мoжет значительнo oтличаться oт давления на метеoстанции, в зависимoсти oт услoвий рельефа (при пoдъёме на 10 м давление пoнижается примернo на 1 мм рт.ст.).